Date String (YYYY-MM-DD hh:mm:ss) UTC,Instrument flags,Ambient pressure (hPa),Sample flow (lpm),Bypass flow (lpm),Sample temperature (°C),Ambient temperature (°C),ASC tube jacket temperature (°C),LED temperature (°C),Box temperature (°C),Sample RH (%),Span deviation,Mass concentration (μg/m³),Mass concentration (μg/m³),Mass concentration (μg/m³)
DateTimeUTC,F1_M11,P_M11,Q1_M11,Q2_M11,T1_M11,T2_M11,T3_M11,T4_M11,T5_M11,U1_M11,ZSPAN_M11,X2_M11,X0_M11,X1_M11
2023-05-20 16:00:00,,0837.0,5.00,0.00,28.1,26.4,00.0,36.5,29.7,30.0,0002.9,0067.93,0089.43,0064.96
2023-05-20 16:01:00,,0837.0,5.00,0.00,28.1,26.5,00.0,36.5,29.7,29.7,0002.9,0067.93,0090.33,0064.94
2023-05-20 16:02:00,,0836.9,5.00,0.00,28.1,26.5,00.0,36.5,29.8,29.1,0002.9,0067.87,0090.65,0064.82
2023-05-20 16:03:00,,0836.9,5.00,0.00,28.1,26.5,00.0,36.5,29.8,28.9,0002.8,0067.77,0090.87,0064.70
2023-05-20 16:04:00,,0836.9,4.99,0.00,28.1,26.6,00.0,36.5,29.8,28.7,0002.8,0067.63,0090.92,0064.56
2023-05-20 16:05:00,,0836.9,5.00,0.00,28.2,26.6,00.0,36.5,29.8,29.0,0002.8,0067.56,0091.46,0064.45
2023-05-20 16:06:00,,0836.9,5.00,0.00,28.2,26.7,00.0,36.5,29.8,29.1,0002.8,0067.51,0091.69,0064.39
2023-05-20 16:07:00,,0836.9,5.00,0.00,28.2,26.7,00.0,36.5,29.9,29.4,0002.8,0067.46,0091.51,0064.35
2023-05-20 16:08:00,,0836.8,4.99,0.00,28.2,26.7,00.0,36.5,29.9,29.6,0002.7,0067.42,0091.53,0064.30
2023-05-20 16:09:00,,0836.8,5.00,0.00,28.2,26.8,00.0,36.5,29.9,30.1,0002.6,0067.44,0091.92,0064.31
2023-05-20 16:10:00,,0836.8,5.00,0.00,28.3,26.8,00.0,36.6,29.9,29.8,0002.6,0067.41,0092.04,0064.26
2023-05-20 16:11:00,,0836.8,5.00,0.00,28.3,26.9,00.0,36.6,29.9,29.6,0002.6,0067.24,0091.85,0064.10
2023-05-20 16:12:00,,0836.7,5.00,0.00,28.3,26.9,00.0,36.6,30.0,29.4,0002.5,0067.12,0090.76,0064.02
2023-05-20 16:13:00,,0836.8,5.00,0.00,28.3,27.0,00.0,36.6,30.0,29.1,0002.4,0067.07,0090.38,0063.99
2023-05-20 16:14:00,,0836.8,4.99,0.00,28.4,27.0,00.0,36.6,30.0,29.0,0002.4,0067.11,0090.07,0064.05
2023-05-20 16:15:00,,0836.8,5.00,0.00,28.4,27.1,00.0,36.6,30.0,29.1,0002.4,0067.14,0090.02,0064.08
2023-05-20 16:16:00,,0836.8,5.00,0.00,28.4,27.1,00.0,36.7,30.1,28.6,0002.5,0067.03,0089.19,0064.01
2023-05-20 16:17:00,,0836.8,4.99,0.00,28.4,27.1,00.0,36.7,30.1,29.2,0002.4,0066.90,0088.55,0063.92
2023-05-20 16:18:00,,0836.8,5.00,0.00,28.5,27.2,00.0,36.7,30.1,28.5,0002.4,0066.89,0088.92,0063.89
2023-05-20 16:19:00,,0836.8,5.00,0.00,28.5,27.2,00.0,36.7,30.1,29.4,0002.5,0066.81,0088.90,0063.82
2023-05-20 16:20:00,,0836.8,5.00,0.00,28.5,27.2,00.0,36.7,30.2,28.8,0002.4,0066.54,0088.18,0063.63
2023-05-20 16:21:00,,0836.8,5.00,0.00,28.5,27.2,00.0,36.7,30.2,28.8,0002.4,0066.45,0087.85,0063.59
2023-05-20 16:22:00,,0836.8,5.01,0.00,28.5,27.3,00.0,36.8,30.2,29.0,0002.5,0066.47,0087.73,0063.64
2023-05-20 16:23:00,,0836.8,5.00,0.00,28.6,27.3,00.0,36.8,30.2,29.5,0002.6,0066.41,0088.22,0063.59
2023-05-20 16:24:00,,0836.8,5.01,0.00,28.6,27.3,00.0,36.8,30.2,29.1,0002.7,0066.27,0088.50,0063.52
2023-05-20 16:25:00,,0836.8,4.99,0.00,28.6,27.2,00.0,36.8,30.2,29.5,0002.6,0066.16,0088.48,0063.44
2023-05-20 16:26:00,,0836.8,5.00,0.00,28.6,27.2,00.0,36.8,30.2,29.7,0002.6,0066.04,0088.27,0063.36
2023-05-20 16:27:00,,0836.8,4.99,0.00,28.6,27.2,00.0,36.8,30.2,29.3,0002.7,0066.02,0088.33,0063.31
2023-05-20 16:28:00,,0836.8,5.00,0.00,28.6,27.2,00.0,36.8,30.2,29.0,0002.7,0066.01,0088.36,0063.26
2023-05-20 16:29:00,,0836.8,5.01,0.00,28.6,27.2,00.0,36.9,30.3,28.7,0002.8,0066.03,0087.99,0063.26
2023-05-20 16:30:00,,0836.7,5.01,0.00,28.6,27.2,00.0,36.9,30.3,28.6,0002.8,0066.10,0088.00,0063.29
2023-05-20 16:31:00,,0836.7,5.00,0.00,28.6,27.2,00.0,36.9,30.2,28.5,0002.9,0066.21,0088.19,0063.38
2023-05-20 16:32:00,,0836.7,4.98,0.00,28.6,27.2,00.0,36.9,30.3,29.2,0002.8,0066.15,0088.18,0063.28
2023-05-20 16:33:00,,0836.7,5.00,0.00,28.6,27.2,00.0,36.9,30.3,29.0,0002.7,0066.00,0088.00,0063.13
2023-05-20 16:34:00,,0836.7,5.00,0.00,28.6,27.2,00.0,36.9,30.3,29.1,0002.7,0065.87,0087.47,0063.04
2023-05-20 16:35:00,,0836.7,5.00,0.00,28.6,27.2,00.0,36.9,30.3,29.0,0002.8,0065.84,0087.03,0063.01
2023-05-20 16:36:00,,0836.7,5.00,0.00,28.6,27.1,00.0,36.9,30.3,28.8,0002.8,0065.80,0086.86,0062.97
2023-05-20 16:37:00,,0836.8,5.00,0.00,28.6,27.1,00.0,36.9,30.3,28.7,0002.9,0065.78,0087.57,0062.94
2023-05-20 16:38:00,,0836.8,5.00,0.00,28.6,27.1,00.0,36.9,30.3,28.7,0002.9,0065.80,0088.10,0062.89
2023-05-20 16:39:00,,0836.8,5.00,0.00,28.6,27.1,00.0,36.9,30.3,28.8,0002.8,0065.74,0088.60,0062.85
2023-05-20 16:40:00,,0836.8,5.00,0.00,28.7,27.2,00.0,37.0,30.3,28.6,0002.8,0065.67,0088.58,0062.77
2023-05-20 16:41:00,,0836.8,5.01,0.00,28.7,27.2,00.0,37.0,30.3,28.9,0002.8,0065.51,0088.56,0062.62
2023-05-20 16:42:00,,0836.8,5.01,0.00,28.7,27.2,00.0,37.0,30.3,28.7,0002.8,0065.33,0089.45,0062.44
2023-05-20 16:43:00,,0836.8,5.00,0.00,28.7,27.2,00.0,37.0,30.3,28.6,0002.8,0065.29,0089.51,0062.41
2023-05-20 16:44:00,,0836.8,4.98,0.00,28.7,27.2,00.0,37.0,30.3,29.7,0002.8,0065.25,0089.51,0062.39
2023-05-20 16:45:00,,0836.8,4.99,0.00,28.7,27.2,00.0,37.0,30.3,28.7,0002.8,0065.23,0089.78,0062.32
2023-05-20 16:46:00,,0836.8,5.00,0.00,28.7,27.3,00.0,37.0,30.4,28.4,0002.8,0065.21,0089.90,0062.29
2023-05-20 16:47:00,,0836.8,5.00,0.00,28.7,27.3,00.0,37.0,30.4,28.3,0002.7,0065.07,0089.73,0062.18
2023-05-20 16:48:00,,0836.8,5.00,0.00,28.7,27.3,00.0,37.0,30.4,28.3,0002.6,0064.89,0088.93,0062.04
2023-05-20 16:49:00,,0836.8,4.99,0.00,28.8,27.3,00.0,37.0,30.4,28.7,0002.6,0064.72,0088.21,0061.98
2023-05-20 16:50:00,,0836.8,4.99,0.00,28.8,27.3,00.0,37.0,30.4,28.3,0002.5,0064.53,0087.23,0061.85
2023-05-20 16:51:00,,0836.8,5.01,0.00,28.8,27.4,00.0,37.1,30.4,28.3,0002.5,0064.36,0087.35,0061.68
2023-05-20 16:52:00,,0836.8,5.00,0.00,28.8,27.4,00.0,37.1,30.5,28.3,0002.5,0064.15,0087.13,0061.51
2023-05-20 16:53:00,,0836.8,5.00,0.00,28.8,27.4,00.0,37.1,30.5,28.2,0002.4,0064.01,0086.28,0061.40
2023-05-20 16:54:00,,0836.8,4.98,0.00,28.8,27.4,00.0,37.1,30.5,27.7,0002.4,0063.92,0085.83,0061.28
2023-05-20 16:55:00,,0836.8,5.00,0.00,28.8,27.5,00.0,37.1,30.5,27.8,0002.4,0063.76,0085.88,0061.09
2023-05-20 16:56:00,,0836.7,5.01,0.00,28.9,27.5,00.0,37.1,30.5,27.6,0002.5,0063.69,0085.55,0060.98
2023-05-20 16:57:00,,0836.7,4.99,0.00,28.9,27.5,00.0,37.1,30.5,28.3,0002.5,0063.47,0084.83,0060.78
2023-05-20 16:58:00,,0836.7,4.99,0.00,28.9,27.6,00.0,37.2,30.5,28.7,0002.5,0063.44,0085.58,0060.76
2023-05-20 16:59:00,,0836.7,5.00,0.00,28.9,27.6,00.0,37.2,30.6,28.6,0002.5,0063.46,0086.08,0060.74
